| time (UTC) | temp F | wind direction | speed knots | gust knots | rain 1hr in | rain 24hr in | rain mn in | humidity % | barometer mb |
| 20260504193034 | 37 | 277 | 15.6 | 31.3 | 0.00 | 0.00 | 0.00 | 99 | 1002.8 |
| 20260504191531 | 36 | 245 | 19.1 | 27.8 | 0.00 | 0.00 | 0.00 | 99 | 1002.7 |
| 20260504190030 | 36 | 245 | 19.1 | 31.3 | 0.00 | 0.00 | 0.00 | 99 | 1002.7 |
| 20260504184532 | 36 | 260 | 18.2 | 27.8 | 0.00 | 0.00 | 0.00 | 99 | 1002.7 |
| 20260504183029 | 35 | 273 | 17.4 | 26.1 | 0.00 | 0.00 | 0.00 | 98 | 1002.8 |
| 20260504181534 | 35 | 256 | 15.6 | 28.7 | 0.00 | 0.00 | 0.00 | 98 | 1002.7 |
| 20260504180033 | 35 | 260 | 18.2 | 31.3 | 0.00 | 0.00 | 0.00 | 98 | 1002.7 |
| 20260504174530 | 35 | 245 | 18.2 | 27.8 | 0.00 | 0.00 | 0.00 | 98 | 1002.8 |
| 20260504173034 | 35 | 291 | 14.8 | 27.8 | 0.00 | 0.00 | 0.00 | 98 | 1002.9 |
| 20260504171535 | 35 | 245 | 18.2 | 26.9 | 0.00 | 0.00 | 0.00 | 98 | 1002.9 |
| 20260504081534 | 27 | 245 | 16.5 | 23.5 | 0.00 | 0.01 | 0.00 | 82 | 1002.4 |
| 20260504044532 | 26 | 245 | 16.5 | 27.8 | 0.00 | 0.01 | 0.00 | 87 | 1001.8 |
| 20260504043034 | 26 | 325 | 18.2 | 26.9 | 0.00 | 0.01 | 0.00 | 87 | 1001.6 |
| 20260504041533 | 26 | 198 | 18.2 | 25.2 | 0.00 | 0.01 | 0.00 | 87 | 1001.8 |
| 20260504040034 | 26 | 275 | 17.4 | 26.1 | 0.00 | 0.01 | 0.00 | 87 | 1001.4 |
| 20260504034531 | 25 | 331 | 18.2 | 26.1 | 0.00 | 0.01 | 0.01 | 88 | 1001.3 |
| 20260504033032 | 25 | 245 | 15.6 | 26.1 | 0.00 | 0.01 | 0.01 | 89 | 1001.3 |
| 20260504031532 | 25 | 245 | 17.4 | 26.1 | 0.00 | 0.01 | 0.01 | 89 | 1001.2 |
| 20260504030035 | 25 | 292 | 19.1 | 26.9 | 0.00 | 0.01 | 0.01 | 88 | 1001.3 |
| 20260504024532 | 25 | 245 | 19.1 | 28.7 | 0.00 | 0.01 | 0.01 | 88 | 1001.2 |
| 20260504023031 | 25 | 314 | 19.1 | 26.9 | 0.00 | 0.01 | 0.01 | 88 | 1001.2 |
| 20260504021532 | 25 | 245 | 19.1 | 26.9 | 0.00 | 0.01 | 0.01 | 89 | 1001.2 |
| 20260504020033 | 25 | 245 | 17.4 | 25.2 | 0.00 | 0.01 | 0.01 | 89 | 1001.1 |
| 20260504014534 | 25 | 245 | 18.2 | 29.5 | 0.00 | 0.01 | 0.01 | 88 | 1001.2 |
| 20260504013036 | 25 | 245 | 20.0 | 28.7 | 0.00 | 0.01 | 0.01 | 88 | 1001.1 |
| 20260504011534 | 25 | 245 | 19.1 | 29.5 | 0.00 | 0.01 | 0.01 | 88 | 1001.1 |
| 20260504010029 | 25 | 245 | 16.5 | 26.1 | 0.00 | 0.01 | 0.01 | 88 | 1000.8 |
| 20260504004530 | 26 | 287 | 20.0 | 29.5 | 0.00 | 0.01 | 0.01 | 87 | 1000.5 |
| 20260504003039 | 26 | 245 | 20.0 | 26.9 | 0.00 | 0.01 | 0.01 | 86 | 1000.3 |
| 20260504001538 | 26 | 245 | 18.2 | 27.8 | 0.00 | 0.01 | 0.01 | 86 | 1000.4 |
| 20260504000053 | 26 | 245 | 16.5 | 26.9 | 0.00 | 0.01 | 0.01 | 85 | 1000.3 |
| 20260503234537 | 27 | 287 | 17.4 | 26.1 | 0.00 | 0.01 | 0.01 | 83 | 1000.2 |
| 20260503233031 | 28 | 245 | 21.7 | 32.2 | 0.00 | 0.01 | 0.01 | 82 | 1000.0 |
| 20260503231532 | 28 | 245 | 20.0 | 29.5 | 0.00 | 0.01 | 0.01 | 82 | 1000.3 |
| 20260503230034 | 28 | 245 | 18.2 | 26.9 | 0.00 | 0.01 | 0.01 | 83 | 1000.4 |
| 20260503224533 | 28 | 245 | 15.6 | 28.7 | 0.00 | 0.02 | 0.01 | 82 | 1000.2 |
| 20260503223038 | 28 | 245 | 16.5 | 32.2 | 0.00 | 0.02 | 0.01 | 82 | 1000.0 |
| 20260503221546 | 28 | 4 | 16.5 | 27.8 | 0.00 | 0.02 | 0.01 | 83 | 1000.0 |
| 20260503220030 | 28 | 245 | 19.1 | 29.5 | 0.00 | 0.02 | 0.01 | 83 | 999.7 |
| 20260503214539 | 28 | 245 | 13.0 | 24.3 | 0.00 | 0.02 | 0.01 | 85 | 1000.0 |
| 20260503213035 | 28 | 245 | 15.6 | 24.3 | 0.00 | 0.02 | 0.01 | 84 | 1000.0 |
| 20260503211533 | 28 | 245 | 14.8 | 27.8 | 0.00 | 0.02 | 0.01 | 83 | 999.7 |
| 20260503210033 | 29 | 325 | 17.4 | 27.8 | 0.00 | 0.02 | 0.01 | 84 | 999.6 |
| 20260503204531 | 29 | 245 | 17.4 | 26.1 | 0.00 | 0.02 | 0.01 | 84 | 1000.0 |
| 20260503203041 | 29 | 245 | 15.6 | 27.8 | 0.00 | 0.02 | 0.01 | 86 | 1000.1 |
| 20260503201534 | 29 | 245 | 17.4 | 25.2 | 0.00 | 0.02 | 0.01 | 86 | 1000.0 |
| 20260503200036 | 29 | 245 | 14.8 | 23.5 | 0.00 | 0.02 | 0.01 | 88 | 1000.3 |
| 20260503194531 | 29 | 245 | 15.6 | 24.3 | 0.00 | 0.02 | 0.01 | 90 | 1000.4 |